Avery Island, LA

7:43 PM CDT on August 28, 2016 (GMT -0500)
Acadiana Regional

Weather History for KARA - March, 2012

Change the Weather History Date:

Thursday, March 1, 2012

  Actual Average Record
Temperature  
Mean Temperature 75 °F 59 °F  
Max Temperature 80 °F 69 °F 82 °F (1951)
Min Temperature 70 °F 49 °F 25 °F (1968)
Degree Days  
Heating Degree Days 0 7  
Month to date heating degree days 0 7  
Since 1 July heating degree days 900 1223  
Cooling Degree Days 10 1  
Month to date cooling degree days 10 1  
Year to date cooling degree days 105 32  
Growing Degree Days 24 (Base 50)    
Moisture  
Dew Point 67 °F    
Average Humidity 80    
Maximum Humidity 97    
Minimum Humidity 62    
Precipitation  
Precipitation 0.01 in 0.15 in 5.08 in (1965)
Month to date precipitation 0.01 0.15  
Year to date precipitation 11.15 9.56  
Sea Level Pressure  
Sea Level Pressure 29.95 in    
Wind  
Wind Speed 11 mph (SSW)    
Max Wind Speed 21 mph    
Max Gust Speed 25 mph    
Visibility 6 miles    
Events Rain    
T = Trace of Precipitation, MM = Missing Value Source: NWS Daily Summary

Daily Weather History Graph

Daily Weather History Graph

Search for Another Location

Airport or City:

Trip Planner

Search our weather history database for the weather conditions in past years. The results will help you decide how hot, cold, wet, or windy it might be!

Date:

Astronomy

Mar. 01, 2012 Rise Set
Actual Time 6:32 AM CST 6:06 PM CST
Civil Twilight 6:08 AM CST 6:31 PM CST
Nautical Twilight 5:41 AM CST 6:58 PM CST
Astronomical Twilight 5:13 AM CST 7:26 PM CST
Moon 11:46 AM CST (3/1) 1:12 AM CST (3/1)
Length of Visible Light 12h 22m
Length of Day
11h 34m
First Quarter, 57% of the Moon is Illuminated
Mar 1
First Quarter
Mar 8
Full
Mar 14
Last Quarter
Mar 22
New
Mar 30
First Quarter

Hourly Weather History & Observations

Time (CST) Temp. Dew Point Humidity Pressure Visibility Wind Dir Wind Speed Gust Speed Precip Events Conditions
12:11 AM 71.6 °F 68.0 °F 88% 29.98 in 1.0 mi South 11.5 mph - N/A   Mist
12:22 AM 71.6 °F 68.0 °F 88% 29.98 in 0.8 mi South 11.5 mph - N/A   Mist
12:38 AM 71.6 °F 69.8 °F 94% 29.99 in 1.5 mi SSW 9.2 mph - N/A   Overcast
12:45 AM 71.6 °F 69.8 °F 94% 30.00 in 3.0 mi SSW 11.5 mph - N/A   Overcast
12:53 AM 71.1 °F 68.0 °F 90% 29.99 in 4.0 mi SSW 10.4 mph - N/A   Overcast
1:53 AM 71.1 °F 68.0 °F 90% 29.99 in 4.0 mi SW 9.2 mph - N/A   Overcast
2:28 AM 69.8 °F 68.0 °F 94% 29.98 in 2.0 mi SSW 10.4 mph - N/A   Overcast
2:41 AM 69.8 °F 68.0 °F 94% 29.97 in 1.5 mi SSW 12.7 mph - N/A   Overcast
2:53 AM 70.0 °F 68.0 °F 93% 29.98 in 1.0 mi SSW 10.4 mph - N/A   Overcast
3:45 AM 69.8 °F 68.0 °F 94% 29.97 in 2.0 mi SSW 6.9 mph - N/A   Overcast
3:53 AM 70.0 °F 68.0 °F 93% 29.97 in 1.8 mi SSW 6.9 mph - N/A   Overcast
4:13 AM 69.8 °F 68.0 °F 94% 29.97 in 3.0 mi SSW 8.1 mph - N/A   Overcast
4:53 AM 70.0 °F 68.0 °F 93% 29.97 in 3.0 mi SSW 6.9 mph - N/A   Overcast
5:15 AM 69.8 °F 68.0 °F 94% 29.97 in 2.5 mi South 5.8 mph - 0.00 in Rain Light Rain
5:53 AM 70.0 °F 68.0 °F 93% 29.98 in 2.0 mi SSW 5.8 mph - 0.00 in Rain Light Rain
6:20 AM 69.8 °F 68.0 °F 94% 29.99 in 1.8 mi South 6.9 mph - 0.00 in Rain Light Rain
6:53 AM 70.0 °F 68.0 °F 93% 29.99 in 1.8 mi SSW 5.8 mph - 0.01 in   Overcast
7:42 AM 69.8 °F 68.0 °F 94% 30.01 in 2.0 mi SSW 6.9 mph - N/A   Overcast
7:53 AM 70.0 °F 68.0 °F 93% 30.01 in 2.5 mi SSW 5.8 mph - N/A   Overcast
8:05 AM 71.6 °F 68.0 °F 88% 30.01 in 3.0 mi South 8.1 mph - N/A   Overcast
8:25 AM 71.6 °F 68.0 °F 88% 30.01 in 4.0 mi SSW 9.2 mph - N/A   Overcast
8:53 AM 72.0 °F 68.0 °F 87% 30.02 in 5.0 mi SSW 8.1 mph - N/A   Overcast
9:06 AM 71.6 °F 68.0 °F 88% 30.02 in 5.0 mi SSW 9.2 mph - N/A   Overcast
9:25 AM 73.4 °F 68.0 °F 83% 30.02 in 7.0 mi SSW 10.4 mph - N/A   Overcast
9:53 AM 73.9 °F 68.0 °F 82% 30.02 in 9.0 mi SSW 8.1 mph - N/A   Overcast
10:53 AM 77.0 °F 66.9 °F 71% 30.01 in 10.0 mi SSW 13.8 mph 20.7 mph N/A   Overcast
12:53 PM 78.1 °F 66.9 °F 68% 29.96 in 10.0 mi SSW 17.3 mph - N/A   Mostly Cloudy
1:04 PM 78.8 °F 66.2 °F 65% 29.95 in 10.0 mi South 18.4 mph 25.3 mph N/A   Mostly Cloudy
1:20 PM 78.8 °F 66.2 °F 65% 29.95 in 10.0 mi SSW 18.4 mph - N/A   Scattered Clouds
1:53 PM 78.1 °F 64.0 °F 62% 29.94 in 10.0 mi SSW 17.3 mph - N/A   Mostly Cloudy
2:53 PM 78.1 °F 66.0 °F 66% 29.92 in 10.0 mi South 17.3 mph 23.0 mph N/A   Mostly Cloudy
3:53 PM 75.9 °F 66.0 °F 71% 29.91 in 10.0 mi SSW 17.3 mph - N/A   Mostly Cloudy
4:53 PM 75.0 °F 64.9 °F 71% 29.89 in 10.0 mi SSW 9.2 mph - N/A   Scattered Clouds
5:53 PM 72.0 °F 66.0 °F 81% 29.89 in 10.0 mi South 12.7 mph - N/A   Scattered Clouds
6:12 PM 73.4 °F 66.2 °F 78% 29.89 in 10.0 mi South 11.5 mph - N/A   Mostly Cloudy
6:53 PM 72.0 °F 66.0 °F 81% 29.88 in 10.0 mi South 8.1 mph - N/A   Mostly Cloudy
7:53 PM 72.0 °F 66.0 °F 81% 29.87 in 10.0 mi South 10.4 mph - N/A   Overcast
8:53 PM 71.1 °F 66.9 °F 87% 29.86 in 9.0 mi South 12.7 mph - N/A   Overcast
9:00 PM 71.6 °F 66.2 °F 83% 29.85 in 9.0 mi South 11.5 mph - N/A   Overcast
9:53 PM 72.0 °F 68.0 °F 87% 29.86 in 8.0 mi South 13.8 mph - N/A   Overcast
10:53 PM 73.0 °F 69.1 °F 87% 29.84 in 8.0 mi SSW 8.1 mph 20.7 mph N/A   Overcast
11:53 PM 73.0 °F 68.0 °F 84% 29.84 in 8.0 mi SSW 16.1 mph 25.3 mph N/A   Overcast